Weather in Varlamovo

Russia / Chelyabinsk Oblast     54°37′26″N   60°40′15″E
В апреле 2022 года жителям России запретили посещать сайт meteo.paraplan.net по решению Генеральной прокуратуры. Аудитория сайта уменьшилась в 10 раз. Владельцы сайта не видят смысла в поддержке погодного сервера в таких условиях. Сайт будет закрыт в октябре.
temp.,
°C
wind,
m/s
gust,
m/s
humid.,
%
clouds,
%
prec.,
mm/h
press.,
hPa
HPBL,
m
30 september, fri
fri3023:00+1sse4874100 0.0 1029535
02:00+1sse4863100 0.0 1030717
05:00+1sse4869100 0.0 1031683
08:00+1sse4867100 0.0 1032706
11:00+2se5743100 0.0 1033861
14:00+5sse563698 0.0 10331161
17:00+6sse453494 0.0 10331284
20:00+3se374267 0.0 1034177
1 october, sat
sat123:00+1se494770 0.0 1035248
02:00+1sse4104978 0.0 1035261
05:00+2sse41044100 0.0 1035375
08:00+2sse4843100 0.0 1036361
11:00+5s5739100 0.0 1035776
14:00+7ssw674499 0.0 10341104
17:00+7sw575399 0.0 1033984
20:00+5sw4951100 0.0 1033490
2 october, sun
sun223:00+5ssw4948100 0.0 1032427
02:00+5ssw41051100 0.0 1032438
05:00+5s41051100 0.0 1031421
08:00+5ssw51150100 0.0 1031471
11:00+8ssw6104690 0.0 1030549
14:00+10ssw684299 0.0 1029805
17:00+9ssw61043100 0.0 1029591
20:00+7ssw51141100 0.0 1029451
3 october, mon
mon323:00+6ssw5114697 0.0 1029325
02:00+6ssw5124792 0.0 1028341
05:00+5s495043 0.0 1028226
08:00+5s4104960 0.0 1028225
11:00+12ssw693162 0.0 1027563
14:00+15ssw67275 0.0 1027945
17:00+14sw57325 0.0 1027674
20:00+8ssw49455 0.0 1029147
4 october, tue
tue423:00+6sw495136 0.0 1030153
02:00+6sw385234 0.0 1030156
05:00+5sw475928 0.0 1031119
08:00+6sw375846 0.0 1032130
11:00+13ssw45395 0.0 1032423
14:00+16ssw44325 0.0 1032887
17:00+16ssw35346 0.0 1032262
20:00+10ssw35425 0.0 103464